Flag for U.S.A. Weather past 2 weeks in Paramus, New Jersey, U.S.A.

Now
72 °F

Clear.


Feels Like: 77 °F
Forecast: 64 / 82 °F
Wind: 7 mph from Northwest

Location: Teterboro Airport

Current Time: Jul 25, 2014 at 12:37:23 AM

Latest Report: Jul 24, 2014 at 11:51 PM


Visibility: 10 mi

Pressure: 29.90 "Hg

Humidity: 48%

Dew point: 51 °F

Location of ParamusLocation

Historic Weather in Paramus — Graph

°F

Paramus temperature yesterday

Maximum temperature yesterday: 83 °F (at 2:51 PM)
Minimum temperature yesterday: 74 °F (at 5:51 AM)
Average temperature yesterday: 78 °F

Past Weeks' High & Low Weather Summary

 TemperatureHumidityPressure
High96 °F (Jul 23, 4:51 PM)89% (Jul 14, 4:00 AM)30.24 "Hg (Jul 14, 4:00 AM)
Low64 °F (Jul 18, 5:51 AM)28% (Jul 18, 3:51 PM)29.73 "Hg (Jul 15, 4:51 PM)
Average77 °F60%30.02 "Hg
* Reported Jul 9 10:51 PM — Jul 24 10:51 PM, Paramus, Weather by CustomWeather, © 2014

Note: Actual official high and low records may vary slightly from our data, if they occured in-between our weather recording intervals... More about our weather records

Advertising

Paramus weather history for previous 24 hours

 ConditionsComfort  
Time TempWeatherWind HumidityBarometerVisibility
10:51 PM
Jul 24
75 °FPassing clouds.7 mph47%29.90 "Hg10 mi
9:51 PM77 °FOvercast.7 mph50%29.88 "Hg10 mi
8:51 PM78 °FOvercast.5 mph46%29.87 "Hg10 mi
7:51 PM79 °FMostly cloudy.7 mph45%29.85 "Hg10 mi
6:51 PM81 °FBroken clouds.8 mph42%29.83 "Hg10 mi
5:51 PM81 °FPartly sunny.8 mph42%29.82 "Hg10 mi
4:51 PM82 °FPartly sunny.8 mph41%29.83 "Hg10 mi
3:51 PM83 °FScattered clouds.5 mph41%29.83 "Hg10 mi
2:51 PM83 °FOvercast.6 mph43%29.84 "Hg10 mi
1:51 PM80 °FScattered clouds.9 mph47%29.85 "Hg10 mi
12:51 PM78 °FOvercast.9 mph54%29.86 "Hg10 mi
11:51 AM78 °FPartly sunny.9 mph54%29.86 "Hg10 mi
10:51 AM77 °FPartly sunny.7 mph58%29.86 "Hg10 mi
9:51 AM76 °FMostly cloudy.6 mph64%29.85 "Hg10 mi
8:51 AM76 °FOvercast.9 mph64%29.85 "Hg10 mi
7:51 AM74 °FPassing clouds.10 mph69%29.84 "Hg10 mi
6:51 AM74 °FScattered clouds.9 mph69%29.83 "Hg10 mi
5:51 AM74 °FPassing clouds.8 mph69%29.81 "Hg10 mi
4:51 AM75 °FOvercast.7 mph66%29.81 "Hg10 mi
3:51 AM75 °FOvercast.8 mph69%29.80 "Hg10 mi
2:51 AM76 °FOvercast.8 mph72%29.80 "Hg10 mi
1:51 AM76 °FPassing clouds.7 mph74%29.80 "Hg10 mi
12:51 AM78 °FClear.10 mph69%29.79 "Hg10 mi
Weather by CustomWeather, © 2014

See weather overviewHow to use our weather pages